TNCA

Aruba/Queen Beatrix International Airport

Airport
ICAO code
TNCA
Summary
ICAO Region
CARSAM
ICAO Territory
Location

Oranjestad, Aruba,

Coordinates
12° 30' 5" N , 70° 0' 55" W
KCC
Airport WX
Tropical Revolving Storm
Metar
TNCA 181500Z 09015KT 9999 BKN017 30/25 Q1012 NOSIG

Description

International airport serving the island of Aruba in the Lesser Antilles, Caribbean. (Netherlands)

Climatology

Tropical Savanna climate (Köppen climate classification Aw), rarely affected directly by tropical storms as it is on the southern fringe of the Atlantic/Caribbean Hurricane Belt.

Runways

Designator Length Width Surface Rops
11/29 2743 45 ASP Yes/Yes

Airport map

Aerial View

SKYbrary Partners:

Safety knowledge contributed by: